This demonstration page uses our WeatherBlox Daily Observations layout. Learn more.

Left ArrowRight Arrow

38.83388, -104.82136

Hourly Observations for March 4, 2018

Temp ( °F °C ) Dew Point ( °F °C ) Humidity (%) Winds ( mph kmh ) Pressure ( in mb ) Visibility ( mi km ) Precip ( " mm )
12:58 am 00:58 Clear 51 10.3 -2 -19 11 11 SSW 12 19 29.34 994 10 16 0.00 0.00
1:58 am 01:58 Clear 48 8.8 -2 -19 12 12 SSE 12 19 29.31 993 10 16 0.00 0.00
2:58 am 02:58 Clear 49 9.5 -3 -19.2 11 11 SE 21 33 29.25 991 10 16 0.00 0.00
3:58 am 03:58 Clear 49 9.2 -10 -23.2 8 8 SSE 21 33 29.22 990 10 16 0.00 0.00
4:08 am 04:08 Clear 48 9 -9 -23 8 8 ESE 14 22 29.22 990 10 16 0.00 0.00
4:14 am 04:14 Clear 48 9 -9 -23 8 8 SSE 14 22 29.22 990 10 16 0.00 0.00
4:19 am 04:19 Clear 48 9 -9 -23 8 8 ESE 14 22 29.23 990 10 16 0.00 0.00
4:38 am 04:38 Clear 48 9 -8 -22 9 9 E 13 20 29.23 990 10 16 0.00 0.00
4:58 am 04:58 Clear 48 8.8 -9 -22.5 9 9 E 6 9 29.23 990 10 16 0.00 0.00
5:02 am 05:02 Clear 48 9 -8 -22 9 9 W 13 20 29.23 990 10 16 0.00 0.00
5:23 am 05:23 Clear 46 8 -8 -22 10 10 ESE 14 22 29.27 991 10 16 0.00 0.00
5:42 am 05:42 Clear 45 7 -6 -21 12 12 NE 13 20 29.26 991 10 16 0.00 0.00
5:52 am 05:52 Clear 46 8 -8 -22 10 10 SE 15 24 29.24 990 10 16 0.00 0.00
5:58 am 05:58 Clear 46 7.5 -7 -21.5 11 11 SE 17 28 29.23 990 10 16 0.00 0.00
6:24 am 06:24 Clear 45 7 -6 -21 12 12 S 12 19 29.25 991 10 16 0.00 0.00
6:45 am 06:45 Sunny 45 7 -6 -21 12 12 NE 12 19 29.24 990 10 16 0.00 0.00
6:58 am 06:58 Sunny 46 7.6 -5 -20.7 11 11 E 9 15 29.23 990 10 16 0.00 0.00
7:12 am 07:12 Sunny 46 8 -4 -20 12 12 ENE 16 26 29.21 989 10 16 0.00 0.00
7:13 am 07:13 Sunny 46 8 -4 -20 12 12 N 14 22 29.24 990 10 16 0.00 0.00
7:16 am 07:16 Sunny 46 8 -4 -20 12 12 W 17 28 29.25 991 10 16 0.00 0.00
7:18 am 07:18 Sunny 46 8 -4 -20 12 12 S 12 19 29.26 991 10 16 0.00 0.00
7:22 am 07:22 Sunny 46 8 -4 -20 12 12 NW 18 30 29.23 990 10 16 0.00 0.00
7:23 am 07:23 Sunny 46 8 -4 -20 12 12 N 12 19 29.24 990 10 16 0.00 0.00
7:26 am 07:26 Sunny 46 8 -2 -19 13 13 NNW 18 30 29.23 990 10 16 0.00 0.00
7:30 am 07:30 Sunny 46 8 -4 -20 12 12 NE 12 19 29.25 991 10 16 0.00 0.00
7:35 am 07:35 Sunny 46 8 -4 -20 12 12 WNW 22 35 29.23 990 10 16 0.00 0.00
7:38 am 07:38 Sunny 46 8 -2 -19 13 13 NW 12 19 29.25 991 10 16 0.00 0.00
7:43 am 07:43 Sunny 48 9 -2 -19 12 12 NE 16 26 29.24 990 10 16 0.00 0.00
7:45 am 07:45 Sunny 48 9 -2 -19 12 12 NNE 13 20 29.26 991 10 16 0.00 0.00
7:50 am 07:50 Sunny 48 9 -2 -19 12 12 NNE 17 28 29.23 990 10 16 0.00 0.00
7:52 am 07:52 Sunny 48 9 -2 -19 12 12 WNW 31 50 29.21 989 10 16 0.00 0.00
7:55 am 07:55 Sunny 48 9 -2 -19 12 12 E 13 20 29.24 990 10 16 0.00 0.00
7:58 am 07:58 Sunny 48 9 -2 -18.8 12 12 ESE 18 30 29.23 990 10 16 0.00 0.00
8:00 am 08:00 Sunny 48 9 -2 -19 12 12 ENE 13 20 29.23 990 10 16 0.00 0.00
8:06 am 08:06 Sunny 48 9 -2 -19 12 12 ENE 12 19 29.23 990 10 16 0.00 0.00
8:26 am 08:26 Sunny 50 10 -2 -19 11 11 NE 22 35 29.19 989 10 16 0.00 0.00
8:32 am 08:32 Sunny 50 10 -4 -20 10 10 NNW 16 26 29.22 990 10 16 0.00 0.00
8:35 am 08:35 Sunny 50 10 -2 -19 11 11 ENE 16 26 29.22 990 10 16 0.00 0.00
8:37 am 08:37 Sunny 50 10 -2 -19 11 11 ESE 14 22 29.23 990 10 16 0.00 0.00
8:58 am 08:58 Sunny 51 10.5 -3 -19.4 10 10 E 12 19 29.22 989 10 16 0.00 0.00
9:19 am 09:19 Sunny 52 11 0 -18 11 11 SSE 16 26 29.22 989 10 16 0.00 0.00
9:58 am 09:58 Sunny 52 11.2 -1 -18.5 11 11 SSE 23 37 29.22 990 10 16 0.00 0.00
10:22 am 10:22 Sunny 52 11 -2 -19 10 10 SE 15 24 29.21 989 10 16 0.00 0.00
10:58 am 10:58 Sunny 54 12.1 -3 -19.3 9 9 SE 21 33 29.18 988 10 16 0.00 0.00
11:58 am 11:58 Sunny 54 12.3 -7 -21.8 7 7 SE 26 43 29.16 987 10 16 0.00 0.00
11:59 am 11:59 Sunny 54 12 -6 -21 8 8 ESE 22 35 29.16 987 10 16 0.00 0.00
12:48 pm 12:48 Sunny 55 13 -4 -20 8 8 SE 16 26 29.11 986 10 16 0.00 0.00
12:55 pm 12:55 Sunny 55 13 -6 -21 8 8 S 21 33 29.11 986 10 16 0.00 0.00
12:58 pm 12:58 Sunny 55 12.5 -5 -20.5 8 8 SSE 23 37 29.11 986 10 16 0.00 0.00
1:18 pm 13:18 Sunny 55 13 -4 -20 8 8 SSE 25 41 29.08 985 10 16 0.00 0.00
1:48 pm 13:48 Sunny 55 13 -6 -21 8 8 S 24 39 29.10 986 10 16 0.00 0.00
1:56 pm 13:56 Sunny 54 12 -6 -21 8 8 SE 16 26 29.13 986 10 16 0.00 0.00
1:58 pm 13:58 Sunny 55 12.6 -6 -21.1 8 8 SSE 22 35 29.11 986 10 16 0.00 0.00
2:18 pm 14:18 Sunny 55 13 -6 -21 8 8 ESE 13 20 29.11 986 10 16 0.00 0.00
2:27 pm 14:27 Sunny 55 13 -4 -20 8 8 SSE 21 33 29.10 986 10 16 0.00 0.00
2:58 pm 14:58 Sunny 54 12.2 -4 -20.2 9 9 S 29 46 29.11 986 10 16 0.00 0.00
3:44 pm 15:44 Sunny 52 11 -2 -19 10 10 SE 15 24 29.14 987 10 16 0.00 0.00
3:58 pm 15:58 Sunny 51 10.7 -1 -18.6 11 11 ESE 18 30 29.13 986 10 16 0.00 0.00
4:51 pm 16:51 Mostly Sunny 50 10 0 -18 12 12 S 14 22 29.15 987 10 16 0.00 0.00
4:58 pm 16:58 Mostly Sunny 49 9.7 1 -17.5 13 13 S 10 17 29.17 988 10 16 0.00 0.00
5:44 pm 17:44 Mostly Sunny 48 9 5 -15 17 17 ESE 16 26 29.21 989 10 16 0.00 0.00
5:48 pm 17:48 Partly Cloudy 48 9 5 -15 17 17 S 13 20 29.22 989 10 16 0.00 0.00
5:58 pm 17:58 Partly Cloudy 48 8.7 5 -15 17 17 SE 14 22 29.22 989 10 16 0.00 0.00
6:58 pm 18:58 Mostly Clear 43 6.1 11 -11.4 28 28 Calm 29.32 993 10 16 0.00 0.00
7:58 pm 19:58 Clear 36 2.2 10 -12 34 34 N 12 19 29.36 994 10 16 0.00 0.00
8:06 pm 20:06 Clear 36 2 9 -13 32 32 WNW 13 20 29.37 995 10 16 0.00 0.00
8:08 pm 20:08 Clear 36 2 9 -13 32 32 N 14 22 29.35 994 10 16 0.00 0.00
8:09 pm 20:09 Clear 36 2 9 -13 32 32 NE 13 20 29.34 994 10 16 0.00 0.00
8:20 pm 20:20 Clear 36 2 7 -14 30 30 WNW 12 19 29.37 995 10 16 0.00 0.00
8:29 pm 20:29 Clear 36 2 7 -14 30 30 W 15 24 29.37 995 10 16 0.00 0.00
8:36 pm 20:36 Clear 36 2 5 -15 27 27 WNW 18 30 29.37 995 10 16 0.00 0.00
8:45 pm 20:45 Clear 36 2 1 -17 23 23 WSW 13 20 29.36 994 10 16 0.00 0.00
8:58 pm 20:58 Clear 36 2.1 -1 -18.3 21 21 N 8 13 29.36 994 10 16 0.00 0.00
9:44 pm 21:44 Clear 34 1 -2 -19 21 21 ENE 16 26 29.34 994 10 16 0.00 0.00
9:58 pm 21:58 Clear 33 0.8 -4 -19.8 20 20 N 6 9 29.39 995 10 16 0.00 0.00
10:58 pm 22:58 Clear 31 -0.7 -2 -18.8 24 24 Calm 29.43 997 10 16 0.00 0.00
11:58 pm 23:58 Clear 29 -1.9 -1 -18.6 27 27 Calm 29.47 998 10 16 0.00 0.00

Powered by AerisWeather